Weather observations for the past three days for
University Airport
Metric (Imperial)
Date Time (pdt) Wind (kph) Vis. (km) Weather Sky Cond. Temperature (ºC) Relative Humidity Wind Chill (°C) Heat Index (°C) Pressure Precipitation (cm)
Air Dwpt 6 hour altimeter (cm) sea level (mb) 1 hr 3 hr 6 hr
Max. Min.
05 22:55 SW 15 16.09 NULL NULL 18 9 56% 76 0.0
05 22:35 SW 7 16.09 NULL NULL 18 9 56% 76.02 0.0
05 22:15 SW 11 16.09 NULL NULL 19 9 52% 76.02 0.0
05 21:55 SW 9 16.09 NULL NULL 19 8 49% 76.02 0.0
05 21:35 SW 13 16.09 NULL NULL 19 8 49% 76 0.0
05 21:15 SW 13 16.09 NULL NULL 20 7 43% 76 0.0
05 20:55 S 15 16.09 NULL NULL 21 7 40% 75.97 0.0
05 20:35 S 15 16.09 NULL NULL 22 7 38% 75.97 0.0
05 20:15 S 15 16.09 NULL NULL 22 7 38% 75.95 0.0
05 19:55 S 13 16.09 NULL NULL 23 7 36% 75.95 0.0
05 19:35 S 13 16.09 NULL NULL 24 7 34% 25 75.95 0.0
05 19:15 S 13 16.09 NULL NULL 24 8 36% 25 75.95 0.0
05 18:55 SW 17 16.09 NULL NULL 25 8 34% 26 75.95 0.0
05 18:35 SW 17 16.09 NULL NULL 27 8 30% 26 75.95 0.0
05 18:15 SW 20 G 28 16.09 NULL NULL 27 8 30% 26 75.95 0.0
05 17:55 SW 15 16.09 NULL NULL 28 6 25% 27 75.92 0.0
05 17:35 S 9 16.09 NULL NULL 28 5 23% 27 75.95 0.0
05 17:15 S 15 16.09 NULL NULL 28 5 23% 27 75.92 0.0
05 16:55 SW 11 16.09 NULL NULL 28 4 21% 27 75.95 0.0
05 16:35 S 11 16.09 NULL NULL 28 4 21% 27 75.95 0.0
05 16:15 S 11 16.09 NULL NULL 28 5 23% 27 75.95 0.0
05 15:55 SW 6 16.09 NULL NULL 28 6 25% 27 75.97 0.0
05 15:35 Calm 16.09 NULL NULL 27 7 28% 26 76 0.0
05 15:15 S 13 16.09 NULL NULL 27 7 28% 26 76 0.0
05 14:55 S 7 16.09 NULL NULL 27 7 28% 26 76.02 0.0
05 14:35 S 7 14.48 NULL NULL 27 8 30% 26 76.02 0.0
05 14:15 Calm 16.09 NULL NULL 26 7 30% 26 76.05 0.0
05 13:55 Calm 16.09 NULL NULL 25 8 34% 26 76.05 0.0
05 13:35 Calm 16.09 NULL NULL 25 8 34% 26 76.07 0.0
05 13:15 Calm 16.09 NULL NULL 24 8 36% 25 76.07 0.0
05 12:55 Calm 14.48 NULL NULL 25 9 36% 26 76.1 0.0
05 10:55 Calm 16.09 NULL NULL 20 12 60% 76.15 0.0
05 10:35 Calm 16.09 NULL NULL 19 13 68% 76.12 0.0
05 10:15 Calm 16.09 NULL NULL 18 13 73% 76.12 0.0
05 09:55 Calm 16.09 NULL NULL 17 13 77% 76.12 0.0
05 09:35 Calm 16.09 NULL NULL 16 13 83% 76.12 0.0
05 09:15 Calm 16.09 NULL NULL 14 14 100% 76.12 0.0
05 08:55 Calm 8.05 NULL NULL 13 13 100% 76.12 0.0
05 08:35 Calm 0.80 NULL NULL 12 12 100% 76.12 0.0
05 08:15 Calm 0.24 NULL NULL 12 12 100% 76.12 0.0
05 07:55 Calm 0.40 NULL NULL 10 10 100% 76.1 0.0
05 07:35 Calm 0.24 NULL NULL 9 9 100% 76.12 0.0
05 07:15 Calm 8.05 NULL NULL 9 9 100% 76.1 0.0
05 06:55 Calm 16.09 NULL NULL 9 9 100% 76.07 0.0
05 06:35 Calm 14.48 NULL NULL 9 9 100% 76.07 0.0
05 06:15 Calm 16.09 NULL NULL 10 10 100% 76.07 0.0
05 05:55 Calm 16.09 NULL NULL 9 9 100% 76.05 0.0
05 05:35 Calm 16.09 NULL NULL 10 10 100% 76.05 0.0
05 05:15 Calm 16.09 NULL NULL 10 9 94% 76.05 0.0
05 04:55 Calm 16.09 NULL NULL 10 10 100% 76.05 0.0
05 04:35 Calm 12.87 NULL NULL 10 10 100% 76.05 0.0
05 04:15 Calm 16.09 NULL NULL 11 11 100% 76.05 0.0
05 03:55 Calm 16.09 NULL NULL 11 11 100% 76.05 0.0
05 03:35 Calm 16.09 NULL NULL 11 11 100% 76.05 0.0
05 03:15 Calm 16.09 NULL NULL 11 11 100% 76.07 0.0
05 02:55 Calm 16.09 NULL NULL 12 12 100% 76.07 0.0
05 02:35 Calm 16.09 NULL NULL 12 11 94% 76.07 0.0
05 02:15 Calm 16.09 NULL NULL 12 12 100% 76.07 0.0
05 01:55 Calm 16.09 NULL NULL 12 12 100% 76.07 0.0
05 01:35 Calm 16.09 NULL NULL 12 12 100% 76.07 0.0
05 01:15 Calm 16.09 NULL NULL 13 12 94% 76.07 0.0
05 00:55 Calm 16.09 NULL NULL 13 12 94% 76.05 0.0
05 00:35 Calm 16.09 NULL NULL 13 12 94% 76.05 0.0
05 00:15 Calm 16.09 NULL NULL 13 12 94% 76.05 0.0
04 23:55 Calm 16.09 NULL NULL 13 12 94% 76.02 0.0
04 23:35 Calm 16.09 NULL NULL 13 12 94% 76.02 0.0
04 23:15 Calm 16.09 NULL NULL 14 11 82% 76.02 0.0
04 22:55 Calm 16.09 NULL NULL 15 11 77% 76.02 0.0
04 22:35 Calm 16.09 NULL NULL 15 10 72% 76.02 0.0
04 22:15 Calm 16.09 NULL NULL 16 10 68% 76.05 0.0
04 21:55 Calm 16.09 NULL NULL 15 10 72% 76.05 0.0
04 21:35 Calm 16.09 NULL NULL 18 10 60% 76.05 0.0
04 21:15 Calm 16.09 NULL NULL 18 10 60% 76.02 0.0
04 20:55 Calm 16.09 NULL NULL 18 9 56% 76.02 0.0
04 20:35 S 7 16.09 NULL NULL 19 9 52% 76 0.0
04 20:15 S 9 16.09 NULL NULL 20 10 53% 75.97 0.0
04 19:55 S 11 16.09 NULL NULL 20 10 53% 75.97 0.0
04 19:35 S 13 16.09 NULL NULL 22 9 44% 75.97 0.0
04 19:15 S 17 16.09 NULL NULL 22 10 47% 75.95 0.0
04 18:55 S 17 16.09 NULL NULL 23 10 44% 75.95 0.0
04 18:35 S 13 16.09 NULL NULL 24 9 39% 25 75.95 0.0
04 18:15 S 17 16.09 NULL NULL 24 9 39% 25 75.95 0.0
04 17:55 Calm 16.09 NULL NULL 25 9 36% 26 75.95 0.0
04 17:35 SE 6 16.09 NULL NULL 25 9 36% 26 75.95 0.0
04 17:15 Calm 16.09 NULL NULL 25 9 36% 26 75.95 0.0
04 16:55 Calm 16.09 NULL NULL 24 9 39% 25 75.95 0.0
04 16:35 Calm 16.09 NULL NULL 25 8 34% 26 75.97 0.0
04 16:15 Calm 16.09 NULL NULL 25 9 36% 26 75.97 0.0
04 15:55 E 9 16.09 NULL NULL 24 9 39% 25 76 0.0
04 15:35 Calm 16.09 NULL NULL 24 8 36% 25 76 0.0
04 15:15 SW 7 16.09 NULL NULL 24 8 36% 25 76.02 0.0
04 14:55 Calm 16.09 NULL NULL 24 8 36% 25 76.02 0.0
04 14:35 SE 11 14.48 NULL NULL 24 8 36% 25 76.02 0.0
04 14:15 Calm 16.09 NULL NULL 23 9 41% 76.02 0.0
04 13:55 S 6 16.09 NULL NULL 23 9 41% 76.02 0.0
04 13:35 Calm 16.09 NULL NULL 23 9 41% 76.02 0.0
04 13:15 Calm 16.09 NULL NULL 22 8 41% 76.05 0.0
04 12:55 S 9 16.09 NULL NULL 23 9 41% 76.05 0.0
04 12:35 Calm 16.09 NULL NULL 23 10 44% 76.05 0.0
04 12:15 Calm 16.09 NULL NULL 21 10 50% 76.07 0.0
04 11:55 Calm 16.09 NULL NULL 22 10 47% 76.07 0.0
04 11:35 SE 6 16.09 NULL NULL 22 11 50% 76.07 0.0
04 11:15 Calm 16.09 NULL NULL 21 12 57% 76.07 0.0
04 10:55 Calm 16.09 NULL NULL 19 12 64% 76.07 0.0
04 10:35 Calm 14.48 NULL NULL 20 12 60% 76.07 0.0
04 10:15 N 7 16.09 NULL NULL 20 12 60% 76.07 0.0
04 09:55 Calm 16.09 NULL NULL 19 12 64% 76.05 0.0
04 09:25 Calm 16.09 NULL NULL 19 11 60% 76.05 0.0
04 09:15 Calm 16.09 NULL NULL 18 11 64% 76.05 0.0
04 04:25 Calm 16.09 NULL NULL 15 13 88% 75.9 0.0
04 04:15 Calm 16.09 NULL NULL 16 13 83% 75.9 0.0
04 03:25 Calm 16.09 NULL NULL 17 14 83% 75.87 0.0
04 03:15 Calm 16.09 NULL NULL 17 14 83% 75.87 0.0
04 02:25 Calm 16.09 NULL NULL 17 15 88% 75.87 0.0
04 02:15 Calm 16.09 NULL NULL 17 15 88% 75.87 0.0
04 01:25 Calm 16.09 NULL NULL 17 15 88% 75.87 0.0
04 01:15 Calm 16.09 NULL NULL 17 16 94% 75.87 0.0
04 00:25 Calm 16.09 NULL NULL 17 17 100% 75.87 0.0
04 00:15 Calm 16.09 NULL NULL 17 17 100% 75.87 0.0
03 23:25 Calm 16.09 NULL NULL 18 17 94% 75.87 0.0
03 23:15 Calm 16.09 NULL NULL 18 17 94% 75.84 0.0
03 22:25 Calm 16.09 NULL NULL 18 17 94% 75.87 0.0
03 22:15 Calm 16.09 NULL NULL 18 16 88% 75.9 0.0
03 21:25 Calm 16.09 NULL NULL 18 15 83% 75.9 0.0
03 21:15 Calm 16.09 NULL NULL 18 15 83% 75.87 0.0
03 20:25 SW 6 16.09 NULL NULL 19 14 73% 75.84 0.0
03 20:15 SW 11 16.09 NULL NULL 19 14 73% 75.84 0.0
03 19:25 Calm 16.09 NULL NULL 19 14 73% 75.87 0.0
03 19:15 W 9 16.09 NULL NULL 19 14 73% 75.87 0.0
03 18:25 W 15 16.09 NULL NULL 20 14 69% 75.87 0.0
03 18:15 W 11 16.09 NULL NULL 20 14 69% 75.87 0.0
03 17:25 SW 13 16.09 NULL NULL 20 17 83% 75.9 0.0
03 17:15 SW 17 G 28 16.09 NULL NULL 20 16 78% 75.9 0.0
03 16:25 SW 11 G 26 16.09 NULL NULL 22 15 65% 75.92 0.0
03 16:15 SW 19 G 31 16.09 NULL NULL 22 16 69% 75.92 0.0
03 15:25 SW 19 G 28 16.09 NULL NULL 22 15 65% 75.95 0.0
03 15:15 S 17 G 28 16.09 NULL NULL 22 15 65% 75.95 0.0
03 14:25 S 20 G 28 16.09 NULL NULL 22 15 65% 75.95 0.0
03 14:15 S 19 G 30 16.09 NULL NULL 22 15 65% 75.97 0.0
03 13:05 S 20 G 28 16.09 NULL NULL 22 15 65% 76.02 0.0
03 12:55 SW 19 G 30 16.09 NULL NULL 22 15 65% 76.02 0.0
03 12:25 S 26 G 35 16.09 NULL NULL 22 15 65% 76.05 0.0
03 12:15 SW 20 G 28 16.09 NULL NULL 21 15 69% 76.05 0.0
03 11:50 S 19 16.09 NULL NULL 21 15 69% 76.07 0.0
03 11:35 S 17 16.09 NULL NULL 20 15 73% 76.1 0.0
03 11:15 S 19 16.09 NULL NULL 20 15 73% 76.1 0.0
03 10:55 S 17 16.09 NULL NULL 20 15 73% 76.1 0.0
03 10:35 S 15 16.09 NULL NULL 19 15 78% 76.1 0.0
03 10:15 S 19 G 31 16.09 NULL NULL 19 15 78% 76.1 0.0
03 09:55 S 22 G 30 16.09 NULL NULL 19 15 78% 76.1 0.0
03 09:35 S 19 G 30 16.09 NULL NULL 19 15 78% 76.1 0.0
03 09:15 S 17 G 26 16.09 NULL NULL 19 15 78% 76.1 0.0
03 08:55 S 20 16.09 NULL NULL 19 15 78% 76.12 0.0
03 08:35 SW 13 G 28 16.09 NULL NULL 18 15 83% 76.12 0.0
03 08:15 S 13 16.09 NULL NULL 19 15 78% 76.12 0.0
03 07:55 S 13 16.09 NULL NULL 19 15 78% 76.1 0.0
03 07:35 S 13 16.09 NULL NULL 18 15 83% 76.12 0.0
03 07:15 SW 13 16.09 NULL NULL 17 15 88% 76.1 0.0
03 06:55 S 9 16.09 NULL NULL 17 15 88% 76.1 0.0
03 06:35 S 11 16.09 NULL NULL 17 15 88% 76.1 0.0
03 06:15 Calm 16.09 NULL NULL 17 15 88% 76.1 0.0
03 05:55 S 6 16.09 NULL NULL 16 14 88% 76.1 0.0
03 05:35 SW 6 16.09 NULL NULL 16 14 88% 76.1 0.0
03 04:55 S 13 16.09 NULL NULL 16 13 83% 76.12 0.0
03 04:35 Calm 16.09 NULL NULL 16 13 83% 76.12 0.0
03 04:15 Calm 16.09 NULL NULL 17 13 77% 76.15 0.0
03 03:55 Calm 16.09 NULL NULL 17 13 77% 76.15 0.0
03 03:35 SW 7 16.09 NULL NULL 16 13 83% 76.12 0.0
03 03:15 SW 11 16.09 NULL NULL 16 13 83% 76.15 0.0
03 02:55 Calm 16.09 NULL NULL 16 13 83% 76.15 0.0
03 02:35 SW 6 16.09 NULL NULL 15 14 94% 76.15 0.0
03 02:15 Calm 16.09 NULL NULL 15 13 88% 76.17 0.0
03 01:55 S 11 16.09 NULL NULL 15 13 88% 76.17 0.0
03 01:35 S 9 16.09 NULL NULL 15 13 88% 76.17 0.0
03 01:15 S 11 16.09 NULL NULL 16 12 77% 76.17 0.0
03 00:55 Calm 16.09 NULL NULL 16 13 83% 76.17 0.0
03 00:35 Calm 16.09 NULL NULL 16 12 77% 76.15 0.0
03 00:15 S 6 16.09 NULL NULL 16 12 77% 76.15 0.0
02 23:55 Calm 16.09 NULL NULL 17 11 68% 76.17 0.0
02 23:35 S 9 16.09 NULL NULL 17 10 64% 76.17 0.0
02 23:15 S 7 16.09 NULL NULL 17 10 64% 76.17 0.0
Date Time (pdt) Wind (kph) Vis. (km) Weather Sky Cond. Air Dwpt Max. Min. Relative Humidity Wind Chill (°C) Heat Index (°C) altimeter (cm) sea level (mb) 1 hr 3 hr 6 hr
6 hour
Temperature (ºC) Pressure Precipitation (cm)